Petersburg, AK

4:45 AM AKDT on September 22, 2017 (GMT -0800)
Johnson Petersburg

Weather History for PAPG - October, 2013

Change the Weather History Date:

Thursday, October 10, 2013

  Actual Average Record
Temperature  
Mean Temperature 46 °F -  
Max Temperature 50 °F 46 °F 60 °F (2006)
Min Temperature 41 °F 39 °F 28 °F (1997)
Degree Days  
Heating Degree Days 20    
Moisture  
Dew Point 41 °F    
Average Humidity 85    
Maximum Humidity 93    
Minimum Humidity 71    
Precipitation  
Precipitation 0.00 in - - ()
Sea Level Pressure  
Sea Level Pressure 29.95 in    
Wind  
Wind Speed 2 mph (NNE)    
Max Wind Speed 34 mph    
Max Gust Speed -    
Visibility 10 miles    
Events Rain    
Averages and records for this station are not official NWS values.
T = Trace of Precipitation, MM = Missing Value Source: NWS Daily Summary

Daily Weather History Graph

Daily Weather History Graph

Search for Another Location

Airport or City:

Trip Planner

Search our weather history database for the weather conditions in past years. The results will help you decide how hot, cold, wet, or windy it might be!

Date:

Astronomy

Oct. 10, 2013 Rise Set
Actual Time 7:14 AM AKDT 6:01 PM AKDT
Civil Twilight 6:36 AM AKDT 6:39 PM AKDT
Nautical Twilight 5:52 AM AKDT 7:23 PM AKDT
Astronomical Twilight 5:08 AM AKDT 8:07 PM AKDT
Moon 1:57 PM AKDT (10/10) 10:04 PM AKDT (10/10)
Length of Visible Light 12h 02m
Length of Day
10h 46m
Waxing Crescent, 37% of the Moon is Illuminated
Oct 10
Waxing Crescent
Oct 11
First Quarter
Oct 18
Full
Oct 26
Last Quarter
Nov 3
New

Hourly Weather History & Observations

Time (AKDT) Temp. Windchill Dew Point Humidity Pressure Visibility Wind Dir Wind Speed Gust Speed Precip Events Conditions
12:16 AM 42.8 °F - 37.4 °F 81% 29.81 in 10.0 mi Calm Calm - N/A   Overcast
12:36 AM 41.0 °F 39.0 °F 37.4 °F 87% 29.82 in 10.0 mi South 3.5 mph - N/A   Overcast
12:56 AM 41.0 °F - 37.4 °F 87% 29.82 in 10.0 mi Calm Calm - N/A   Overcast
1:56 AM 41.0 °F - 39.2 °F 93% 29.84 in 10.0 mi Calm Calm - N/A   Overcast
2:16 AM 41.0 °F 39.0 °F 39.2 °F 93% 29.84 in 10.0 mi SSW 3.5 mph - N/A   Overcast
2:36 AM 42.8 °F - 39.2 °F 87% 29.85 in 10.0 mi Calm Calm - N/A   Overcast
2:56 AM 42.8 °F - 39.2 °F 87% 29.85 in 10.0 mi Calm Calm - N/A   Overcast
3:16 AM 42.8 °F 41.1 °F 39.2 °F 87% 29.85 in 10.0 mi East 3.5 mph - N/A   Overcast
3:56 AM 42.8 °F - 39.2 °F 87% 29.86 in 10.0 mi Calm Calm - N/A   Overcast
4:16 AM 42.8 °F - 39.2 °F 87% 29.86 in 10.0 mi Calm Calm - N/A   Overcast
4:36 AM 42.8 °F - 39.2 °F 87% 29.87 in 10.0 mi Calm Calm - N/A   Overcast
5:36 AM 42.8 °F - 39.2 °F 87% 29.88 in 10.0 mi Calm Calm - N/A   Mostly Cloudy
5:55 AM 44.6 °F - 39.2 °F 81% 29.89 in 10.0 mi Calm Calm - N/A   Overcast
6:56 AM 44.6 °F - 39.2 °F 81% 29.90 in 10.0 mi Calm Calm - N/A   Mostly Cloudy
7:16 AM 42.8 °F - 39.2 °F 87% 29.91 in 10.0 mi Calm Calm - N/A   Mostly Cloudy
7:36 AM 42.8 °F 41.1 °F 39.2 °F 87% 29.91 in 10.0 mi SSW 3.5 mph - N/A   Mostly Cloudy
7:56 AM 44.6 °F 43.1 °F 39.2 °F 81% 29.92 in 10.0 mi SW 3.5 mph - N/A   Mostly Cloudy
8:36 AM 44.6 °F - 41.0 °F 87% 29.93 in 10.0 mi Calm Calm - N/A   Mostly Cloudy
8:55 AM 44.6 °F - 41.0 °F 87% 29.94 in 10.0 mi Calm Calm - N/A   Mostly Cloudy
9:16 AM 46.4 °F 45.2 °F 41.0 °F 81% 29.94 in 10.0 mi NW 3.5 mph - N/A   Mostly Cloudy
9:36 AM 46.4 °F 45.2 °F 41.0 °F 81% 29.94 in 10.0 mi WNW 3.5 mph - N/A   Mostly Cloudy
9:55 AM 46.4 °F 44.3 °F 41.0 °F 81% 29.96 in 10.0 mi WNW 4.6 mph - N/A   Overcast
9:56 AM 46.4 °F 45.2 °F 41.0 °F 81% 29.95 in 10.0 mi NW 3.5 mph - N/A   Overcast
11:36 AM 48.2 °F - 41.0 °F 76% 29.97 in 10.0 mi Calm Calm - N/A   Overcast
11:55 AM 48.2 °F - 41.0 °F 76% 29.98 in 10.0 mi NNE 34.5 mph - N/A   Overcast
12:16 PM 48.2 °F - 42.8 °F 82% 29.98 in 10.0 mi Calm Calm - N/A   Overcast
12:36 PM 50.0 °F - 42.8 °F 76% 29.99 in 10.0 mi ENE 4.6 mph - N/A   Overcast
12:56 PM 48.2 °F - 42.8 °F 82% 29.99 in 10.0 mi Calm Calm - N/A   Overcast
1:16 PM 48.2 °F - 42.8 °F 82% 29.98 in 10.0 mi Calm Calm - N/A   Overcast
2:50 PM 48.2 °F - 39.2 °F 71% 29.99 in 10.0 mi NE 3.5 mph - N/A Rain Light Rain
2:56 PM - - - N/A% 29.98 in - ENE 3.5 mph - N/A   Overcast
3:16 PM 48.2 °F - 41.0 °F 76% 29.99 in 10.0 mi NE 5.8 mph - N/A   Overcast
3:36 PM 48.2 °F - 41.0 °F 76% 29.99 in 10.0 mi East 3.5 mph - N/A   Overcast
4:16 PM 46.4 °F - 41.0 °F 81% 30.00 in 10.0 mi Calm Calm - N/A   Mostly Cloudy
4:36 PM 46.4 °F 44.3 °F 42.8 °F 87% 30.00 in 10.0 mi NE 4.6 mph - N/A   Mostly Cloudy
4:56 PM 46.4 °F - 41.0 °F 81% 30.00 in 10.0 mi Calm Calm - N/A   Overcast
5:36 PM 46.4 °F - 42.8 °F 87% 30.01 in 10.0 mi Calm Calm - N/A   Overcast
6:16 PM 44.6 °F - 42.8 °F 93% 30.01 in 10.0 mi Calm Calm - N/A   Overcast
6:55 PM 44.6 °F - 42.8 °F 93% 30.01 in 10.0 mi Calm Calm - N/A   Overcast
7:36 PM 44.6 °F - 41.0 °F 87% 30.01 in 10.0 mi Calm Calm - N/A   Overcast
7:56 PM 44.6 °F - 42.8 °F 93% 30.01 in 10.0 mi Calm Calm - N/A   Overcast
8:16 PM 44.6 °F - 42.8 °F 93% 30.02 in 10.0 mi Calm Calm - N/A   Overcast
8:55 PM 44.6 °F - 42.8 °F 93% 30.02 in 10.0 mi Calm Calm - N/A   Overcast
9:16 PM 44.6 °F - 41.0 °F 87% 30.03 in 10.0 mi Calm Calm - N/A   Overcast
9:36 PM 44.6 °F - 41.0 °F 87% 30.03 in 10.0 mi Calm Calm - N/A   Overcast
9:56 PM 44.6 °F - 42.8 °F 93% 30.03 in 10.0 mi Calm Calm - N/A   Overcast
10:56 PM 44.6 °F - 42.8 °F 93% 30.04 in 10.0 mi Calm Calm - N/A   Overcast
11:16 PM 44.6 °F - 42.8 °F 93% 30.04 in 10.0 mi Calm Calm - N/A   Overcast
11:36 PM 44.6 °F - 42.8 °F 93% 30.04 in 10.0 mi Calm Calm - N/A   Overcast
11:56 PM 44.6 °F - 42.8 °F 93% 30.04 in 10.0 mi Calm Calm - N/A   Overcast